Year,Month,Day,Hour,Minute,Value (Times are PST for temperature in C)
2005,11,14,00,00,2.10
2005,11,14,00,01,2.10
2005,11,14,00,02,2.10
2005,11,14,00,03,2.10
2005,11,14,00,04,2.10
2005,11,14,00,05,2.10
2005,11,14,00,06,2.00
2005,11,14,00,07,2.00
2005,11,14,00,08,2.00
2005,11,14,00,09,2.00
2005,11,14,00,10,1.90
2005,11,14,00,11,1.90
2005,11,14,00,12,1.90
2005,11,14,00,13,1.90
2005,11,14,00,14,2.00
2005,11,14,00,15,2.00
2005,11,14,00,16,1.90
2005,11,14,00,17,1.90
2005,11,14,00,18,1.90
2005,11,14,00,19,1.90
2005,11,14,00,20,1.90
2005,11,14,00,21,1.80
2005,11,14,00,22,1.80
2005,11,14,00,23,1.80
2005,11,14,00,24,1.90
2005,11,14,00,25,1.90
2005,11,14,00,26,2.00
2005,11,14,00,27,2.00
2005,11,14,00,28,2.10
2005,11,14,00,29,2.10
2005,11,14,00,30,2.10
2005,11,14,00,31,2.10
2005,11,14,00,32,2.10
2005,11,14,00,33,2.10
2005,11,14,00,34,2.10
2005,11,14,00,35,2.00
2005,11,14,00,36,2.00
2005,11,14,00,37,2.00
2005,11,14,00,38,2.00
2005,11,14,00,39,2.00
2005,11,14,00,40,1.90
2005,11,14,00,41,1.90
2005,11,14,00,42,1.90
2005,11,14,00,43,1.80
2005,11,14,00,44,1.80
2005,11,14,00,45,1.80
2005,11,14,00,46,1.80
2005,11,14,00,47,1.80
2005,11,14,00,48,1.80
2005,11,14,00,49,1.80
2005,11,14,00,50,1.80
2005,11,14,00,51,1.80
2005,11,14,00,52,1.80
2005,11,14,00,53,1.80
2005,11,14,00,54,1.80
2005,11,14,00,55,1.80
2005,11,14,00,56,1.80
2005,11,14,00,57,1.80
2005,11,14,00,58,1.80
2005,11,14,00,59,1.80
2005,11,14,01,00,1.80
2005,11,14,01,01,1.70
2005,11,14,01,02,1.70
2005,11,14,01,03,1.70
2005,11,14,01,04,1.70
2005,11,14,01,05,1.70
2005,11,14,01,06,1.70
2005,11,14,01,07,1.70
2005,11,14,01,08,1.70
2005,11,14,01,09,1.70
2005,11,14,01,10,1.70
2005,11,14,01,11,1.60
2005,11,14,01,12,1.60
2005,11,14,01,13,1.60
2005,11,14,01,14,1.70
2005,11,14,01,15,1.70
2005,11,14,01,16,1.70
2005,11,14,01,17,1.70
2005,11,14,01,18,1.70
2005,11,14,01,19,1.70
2005,11,14,01,20,1.70
2005,11,14,01,21,1.70
2005,11,14,01,22,1.70
2005,11,14,01,23,1.70
2005,11,14,01,24,1.70
2005,11,14,01,25,1.70
2005,11,14,01,26,1.70
2005,11,14,01,27,1.70
2005,11,14,01,28,1.70
2005,11,14,01,29,1.70
2005,11,14,01,30,1.70
2005,11,14,01,31,1.70
2005,11,14,01,32,1.70
2005,11,14,01,33,1.70
2005,11,14,01,34,1.60
2005,11,14,01,35,1.60
2005,11,14,01,36,1.60
2005,11,14,01,37,1.60
2005,11,14,01,38,1.60
2005,11,14,01,39,1.60
2005,11,14,01,40,1.60
2005,11,14,01,41,1.60
2005,11,14,01,42,1.60
2005,11,14,01,43,1.50
2005,11,14,01,44,1.50
2005,11,14,01,45,1.50
2005,11,14,01,46,1.50
2005,11,14,01,47,1.50
2005,11,14,01,48,1.40
2005,11,14,01,49,1.40
2005,11,14,01,50,1.40
2005,11,14,01,51,1.40
2005,11,14,01,52,1.40
2005,11,14,01,53,1.30
2005,11,14,01,54,1.30
2005,11,14,01,55,1.30
2005,11,14,01,56,1.30
2005,11,14,01,57,1.30
2005,11,14,01,58,1.30
2005,11,14,01,59,1.30
2005,11,14,02,00,1.30
2005,11,14,02,01,1.30
2005,11,14,02,02,1.30
2005,11,14,02,03,1.30
2005,11,14,02,04,1.40
2005,11,14,02,05,1.40
2005,11,14,02,06,1.40
2005,11,14,02,07,1.40
2005,11,14,02,08,1.40
2005,11,14,02,09,1.40
2005,11,14,02,10,1.40
2005,11,14,02,11,1.40
2005,11,14,02,12,1.40
2005,11,14,02,13,1.40
2005,11,14,02,14,1.40
2005,11,14,02,15,1.40
2005,11,14,02,16,1.40
2005,11,14,02,17,1.40
2005,11,14,02,18,1.40
2005,11,14,02,19,1.40
2005,11,14,02,20,1.40
2005,11,14,02,21,1.40
2005,11,14,02,22,1.40
2005,11,14,02,23,1.40
2005,11,14,02,24,1.50
2005,11,14,02,25,1.50
2005,11,14,02,26,1.50
2005,11,14,02,27,1.50
2005,11,14,02,28,1.50
2005,11,14,02,29,1.50
2005,11,14,02,30,1.50
2005,11,14,02,31,1.60
2005,11,14,02,32,1.60
2005,11,14,02,33,1.60
2005,11,14,02,34,1.60
2005,11,14,02,35,1.60
2005,11,14,02,36,1.60
2005,11,14,02,37,1.60
2005,11,14,02,38,1.60
2005,11,14,02,39,1.60
2005,11,14,02,40,1.60
2005,11,14,02,41,1.60
2005,11,14,02,42,1.70
2005,11,14,02,43,1.70
2005,11,14,02,44,1.70
2005,11,14,02,45,1.70
2005,11,14,02,46,1.70
2005,11,14,02,47,1.80
2005,11,14,02,48,1.80
2005,11,14,02,49,1.80
2005,11,14,02,50,1.80
2005,11,14,02,51,1.80
2005,11,14,02,52,1.80
2005,11,14,02,53,1.80
2005,11,14,02,54,1.80
2005,11,14,02,55,1.80
2005,11,14,02,56,1.80
2005,11,14,02,57,1.90
2005,11,14,02,58,1.90
2005,11,14,02,59,1.90
2005,11,14,03,00,1.90
2005,11,14,03,01,1.90
2005,11,14,03,02,1.90
2005,11,14,03,03,1.90
2005,11,14,03,04,1.90
2005,11,14,03,05,1.90
2005,11,14,03,06,1.90
2005,11,14,03,07,1.90
2005,11,14,03,08,1.90
2005,11,14,03,09,1.90
2005,11,14,03,10,1.90
2005,11,14,03,11,1.90
2005,11,14,03,12,1.90
2005,11,14,03,13,1.90
2005,11,14,03,14,1.90
2005,11,14,03,15,2.00
2005,11,14,03,16,2.00
2005,11,14,03,17,2.00
2005,11,14,03,18,2.00
2005,11,14,03,19,2.00
2005,11,14,03,20,2.00
2005,11,14,03,21,2.00
2005,11,14,03,22,2.00
2005,11,14,03,23,1.90
2005,11,14,03,24,1.90
2005,11,14,03,25,1.90
2005,11,14,03,26,1.90
2005,11,14,03,27,1.90
2005,11,14,03,28,1.90
2005,11,14,03,29,1.90
2005,11,14,03,30,1.90
2005,11,14,03,31,1.80
2005,11,14,03,32,1.80
2005,11,14,03,33,1.80
2005,11,14,03,34,1.80
2005,11,14,03,35,1.80
2005,11,14,03,36,1.80
2005,11,14,03,37,1.80
2005,11,14,03,38,1.80
2005,11,14,03,39,1.80
2005,11,14,03,40,1.80
2005,11,14,03,41,1.80
2005,11,14,03,42,1.80
2005,11,14,03,43,1.80
2005,11,14,03,44,1.80
2005,11,14,03,45,1.80
2005,11,14,03,46,1.80
2005,11,14,03,47,1.80
2005,11,14,03,48,1.80
2005,11,14,03,49,1.80
2005,11,14,03,50,1.80
2005,11,14,03,51,1.90
2005,11,14,03,52,1.90
2005,11,14,03,53,1.90
2005,11,14,03,54,1.90
2005,11,14,03,55,1.90
2005,11,14,03,56,1.90
2005,11,14,03,57,2.00
2005,11,14,03,58,2.00
2005,11,14,03,59,2.00
2005,11,14,04,00,2.10
2005,11,14,04,01,2.10
2005,11,14,04,02,2.10
2005,11,14,04,03,2.10
2005,11,14,04,04,2.20
2005,11,14,04,05,2.20
2005,11,14,04,06,2.20
2005,11,14,04,07,2.20
2005,11,14,04,08,2.20
2005,11,14,04,09,2.20
2005,11,14,04,10,2.20
2005,11,14,04,11,2.20
2005,11,14,04,12,2.20
2005,11,14,04,13,2.20
2005,11,14,04,14,2.20
2005,11,14,04,15,2.20
2005,11,14,04,16,2.30
2005,11,14,04,17,2.30
2005,11,14,04,18,2.30
2005,11,14,04,19,2.40
2005,11,14,04,20,2.40
2005,11,14,04,21,2.40
2005,11,14,04,22,2.40
2005,11,14,04,23,2.40
2005,11,14,04,24,2.40
2005,11,14,04,25,2.40
2005,11,14,04,26,2.40
2005,11,14,04,27,2.40
2005,11,14,04,28,2.40
2005,11,14,04,29,2.40
2005,11,14,04,30,2.40
2005,11,14,04,31,2.50
2005,11,14,04,32,2.50
2005,11,14,04,33,2.50
2005,11,14,04,34,2.40
2005,11,14,04,35,2.40
2005,11,14,04,36,2.40
2005,11,14,04,37,2.40
2005,11,14,04,38,2.40
2005,11,14,04,39,2.40
2005,11,14,04,40,2.40
2005,11,14,04,41,2.40
2005,11,14,04,42,2.40
2005,11,14,04,43,2.40
2005,11,14,04,44,2.40
2005,11,14,04,45,2.40
2005,11,14,04,46,2.30
2005,11,14,04,47,2.30
2005,11,14,04,48,2.40
2005,11,14,04,49,2.40
2005,11,14,04,50,2.40
2005,11,14,04,51,2.40
2005,11,14,04,52,2.40
2005,11,14,04,53,2.40
2005,11,14,04,54,2.40
2005,11,14,04,55,2.40
2005,11,14,04,56,2.30
2005,11,14,04,57,2.30
2005,11,14,04,58,2.30
2005,11,14,04,59,2.30
2005,11,14,05,00,2.20
2005,11,14,05,01,2.20
2005,11,14,05,02,2.20
2005,11,14,05,03,2.10
2005,11,14,05,04,2.10
2005,11,14,05,05,2.10
2005,11,14,05,06,2.10
2005,11,14,05,07,2.10
2005,11,14,05,08,2.10
2005,11,14,05,09,2.10
2005,11,14,05,10,2.10
2005,11,14,05,11,2.10
2005,11,14,05,12,2.10
2005,11,14,05,13,2.20
2005,11,14,05,14,2.20
2005,11,14,05,15,2.20
2005,11,14,05,16,2.20
2005,11,14,05,17,2.30
2005,11,14,05,18,2.30
2005,11,14,05,19,2.30
2005,11,14,05,20,2.40
2005,11,14,05,21,2.40
2005,11,14,05,22,2.50
2005,11,14,05,23,2.50
2005,11,14,05,24,2.60
2005,11,14,05,25,2.60
2005,11,14,05,26,2.70
2005,11,14,05,27,2.70
2005,11,14,05,28,2.70
2005,11,14,05,29,2.80
2005,11,14,05,30,2.80
2005,11,14,05,31,2.80
2005,11,14,05,32,2.90
2005,11,14,05,33,2.90
2005,11,14,05,34,2.90
2005,11,14,05,35,2.90
2005,11,14,05,36,2.90
2005,11,14,05,37,2.90
2005,11,14,05,38,2.90
2005,11,14,05,39,2.90
2005,11,14,05,40,2.90
2005,11,14,05,41,2.90
2005,11,14,05,42,3.00
2005,11,14,05,43,3.10
2005,11,14,05,44,3.10
2005,11,14,05,45,3.20
2005,11,14,05,46,3.30
2005,11,14,05,47,3.40
2005,11,14,05,48,3.50
2005,11,14,05,49,3.60
2005,11,14,05,50,3.60
2005,11,14,05,51,3.80
2005,11,14,05,52,3.90
2005,11,14,05,53,4.00
2005,11,14,05,54,4.00
2005,11,14,05,55,4.10
2005,11,14,05,56,4.10
2005,11,14,05,57,4.10
2005,11,14,05,58,4.10
2005,11,14,05,59,4.10
2005,11,14,06,00,4.10
2005,11,14,06,01,4.10
2005,11,14,06,02,4.10
2005,11,14,06,03,4.10
2005,11,14,06,04,4.00
2005,11,14,06,05,4.00
2005,11,14,06,06,4.00
2005,11,14,06,07,4.00
2005,11,14,06,08,4.00
2005,11,14,06,09,3.90
2005,11,14,06,10,4.00
2005,11,14,06,11,4.00
2005,11,14,06,12,4.00
2005,11,14,06,13,4.00
2005,11,14,06,14,4.00
2005,11,14,06,15,4.00
2005,11,14,06,16,4.10
2005,11,14,06,17,4.10
2005,11,14,06,18,4.10
2005,11,14,06,19,4.20
2005,11,14,06,20,4.20
2005,11,14,06,21,4.20
2005,11,14,06,22,4.20
2005,11,14,06,23,4.20
2005,11,14,06,24,4.20
2005,11,14,06,25,4.20
2005,11,14,06,26,4.20
2005,11,14,06,27,4.20
2005,11,14,06,28,4.20
2005,11,14,06,29,4.20
2005,11,14,06,30,4.20
2005,11,14,06,31,4.20
2005,11,14,06,32,4.20
2005,11,14,06,33,4.20
2005,11,14,06,34,4.20
2005,11,14,06,35,4.20
2005,11,14,06,36,4.20
2005,11,14,06,37,4.20
2005,11,14,06,38,4.20
2005,11,14,06,39,4.20
2005,11,14,06,40,4.20
2005,11,14,06,41,4.20
2005,11,14,06,42,4.20
2005,11,14,06,43,4.20
2005,11,14,06,44,4.20
2005,11,14,06,45,4.10
2005,11,14,06,46,4.10
2005,11,14,06,47,4.00
2005,11,14,06,48,4.00
2005,11,14,06,49,4.00
2005,11,14,06,50,3.90
2005,11,14,06,51,3.80
2005,11,14,06,52,3.80
2005,11,14,06,53,3.70
2005,11,14,06,54,3.60
2005,11,14,06,55,3.50
2005,11,14,06,56,3.50
2005,11,14,06,57,3.50
2005,11,14,06,58,3.50
2005,11,14,06,59,3.50
2005,11,14,07,00,3.50
2005,11,14,07,01,3.40
2005,11,14,07,02,3.30
2005,11,14,07,03,3.30
2005,11,14,07,04,3.30
2005,11,14,07,05,3.30
2005,11,14,07,06,3.20
2005,11,14,07,07,3.20
2005,11,14,07,08,3.20
2005,11,14,07,09,3.10
2005,11,14,07,10,3.10
2005,11,14,07,11,3.10
2005,11,14,07,12,3.10
2005,11,14,07,13,3.20
2005,11,14,07,14,3.20
2005,11,14,07,15,3.20
2005,11,14,07,16,3.20
2005,11,14,07,17,3.20
2005,11,14,07,18,3.20
2005,11,14,07,19,3.20
2005,11,14,07,20,3.10
2005,11,14,07,21,3.10
2005,11,14,07,22,3.10
2005,11,14,07,23,3.10
2005,11,14,07,24,2.90
2005,11,14,07,25,2.90
2005,11,14,07,26,2.90
2005,11,14,07,27,2.80
2005,11,14,07,28,2.70
2005,11,14,07,29,2.60
2005,11,14,07,30,2.50
2005,11,14,07,31,2.50
2005,11,14,07,32,2.40
2005,11,14,07,33,2.30
2005,11,14,07,34,2.30
2005,11,14,07,35,2.20
2005,11,14,07,36,2.20
2005,11,14,07,37,2.20
2005,11,14,07,38,2.10
2005,11,14,07,39,2.00
2005,11,14,07,40,2.00
2005,11,14,07,41,2.00
2005,11,14,07,42,2.00
2005,11,14,07,43,2.00
2005,11,14,07,44,2.00
2005,11,14,07,45,2.10
2005,11,14,07,46,2.10
2005,11,14,07,47,2.20
2005,11,14,07,48,2.20
2005,11,14,07,49,2.20
2005,11,14,07,50,2.20
2005,11,14,07,51,2.30
2005,11,14,07,52,2.40
2005,11,14,07,53,2.40
2005,11,14,07,54,2.50
2005,11,14,07,55,2.50
2005,11,14,07,56,2.70
2005,11,14,07,57,2.70
2005,11,14,07,58,2.80
2005,11,14,07,59,2.90
2005,11,14,08,00,3.00
2005,11,14,08,01,3.10
2005,11,14,08,02,3.20
2005,11,14,08,03,3.30
2005,11,14,08,04,3.40
2005,11,14,08,05,3.50
2005,11,14,08,06,3.60
2005,11,14,08,07,3.60
2005,11,14,08,08,3.80
2005,11,14,08,09,3.80
2005,11,14,08,10,3.90
2005,11,14,08,11,3.90
2005,11,14,08,12,4.00
2005,11,14,08,13,4.00
2005,11,14,08,14,4.10
2005,11,14,08,15,4.20
2005,11,14,08,16,4.20
2005,11,14,08,17,4.20
2005,11,14,08,18,4.20
2005,11,14,08,19,4.20
2005,11,14,08,20,4.20
2005,11,14,08,21,4.30
2005,11,14,08,22,4.30
2005,11,14,08,23,4.30
2005,11,14,08,24,4.30
2005,11,14,08,25,4.30
2005,11,14,08,26,4.30
2005,11,14,08,27,4.30
2005,11,14,08,28,4.30
2005,11,14,08,29,4.30
2005,11,14,08,30,4.30
2005,11,14,08,31,4.30
2005,11,14,08,32,4.30
2005,11,14,08,33,4.30
2005,11,14,08,34,4.40
2005,11,14,08,35,4.40
2005,11,14,08,36,4.40
2005,11,14,08,37,4.40
2005,11,14,08,38,4.40
2005,11,14,08,39,4.40
2005,11,14,08,40,4.40
2005,11,14,08,41,4.40
2005,11,14,08,42,4.40
2005,11,14,08,43,4.40
2005,11,14,08,44,4.40
2005,11,14,08,45,4.40
2005,11,14,08,46,4.40
2005,11,14,08,47,4.50
2005,11,14,08,48,4.50
2005,11,14,08,49,4.50
2005,11,14,08,50,4.50
2005,11,14,08,51,4.60
2005,11,14,08,52,4.60
2005,11,14,08,53,4.70
2005,11,14,08,54,4.80
2005,11,14,08,55,4.80
2005,11,14,08,56,4.90
2005,11,14,08,57,4.90
2005,11,14,08,58,5.00
2005,11,14,08,59,5.10
2005,11,14,09,00,5.10
2005,11,14,09,01,5.20
2005,11,14,09,02,5.30
2005,11,14,09,03,5.30
2005,11,14,09,04,5.30
2005,11,14,09,05,5.40
2005,11,14,09,06,5.40
2005,11,14,09,07,5.50
2005,11,14,09,08,5.50
2005,11,14,09,09,5.50
2005,11,14,09,10,5.60
2005,11,14,09,11,5.60
2005,11,14,09,12,5.60
2005,11,14,09,13,5.70
2005,11,14,09,14,5.70
2005,11,14,09,15,5.70
2005,11,14,09,16,5.70
2005,11,14,09,17,5.70
2005,11,14,09,18,5.70
2005,11,14,09,19,5.70
2005,11,14,09,20,5.80
2005,11,14,09,21,5.80
2005,11,14,09,22,5.90
2005,11,14,09,23,5.90
2005,11,14,09,24,5.90
2005,11,14,09,25,5.90
2005,11,14,09,26,5.90
2005,11,14,09,27,6.00
2005,11,14,09,28,6.00
2005,11,14,09,29,6.00
2005,11,14,09,30,6.00
2005,11,14,09,31,6.00
2005,11,14,09,32,6.10
2005,11,14,09,33,6.10
2005,11,14,09,34,6.10
2005,11,14,09,35,6.20
2005,11,14,09,36,6.20
2005,11,14,09,37,6.20
2005,11,14,09,38,6.20
2005,11,14,09,39,6.20
2005,11,14,09,40,6.20
2005,11,14,09,41,6.20
2005,11,14,09,42,6.30
2005,11,14,09,43,6.30
2005,11,14,09,44,6.30
2005,11,14,09,45,6.30
2005,11,14,09,46,6.30
2005,11,14,09,47,6.40
2005,11,14,09,48,6.40
2005,11,14,09,49,6.40
2005,11,14,09,50,6.50
2005,11,14,09,51,6.60
2005,11,14,09,52,6.60
2005,11,14,09,53,6.60
2005,11,14,09,54,6.50
2005,11,14,09,55,6.50
2005,11,14,09,56,6.60
2005,11,14,09,57,6.60
2005,11,14,09,58,6.60
2005,11,14,09,59,6.60
2005,11,14,10,00,6.60
2005,11,14,10,01,6.60
2005,11,14,10,02,6.60
2005,11,14,10,03,6.60
2005,11,14,10,04,6.60
2005,11,14,10,05,6.60
2005,11,14,10,06,6.60
2005,11,14,10,07,6.60
2005,11,14,10,08,6.60
2005,11,14,10,09,6.60
2005,11,14,10,10,6.60
2005,11,14,10,11,6.60
2005,11,14,10,12,6.60
2005,11,14,10,13,6.60
2005,11,14,10,14,6.60
2005,11,14,10,15,6.60
2005,11,14,10,16,6.60
2005,11,14,10,17,6.70
2005,11,14,10,18,6.70
2005,11,14,10,19,6.70
2005,11,14,10,20,6.80
2005,11,14,10,21,6.80
2005,11,14,10,22,6.80
2005,11,14,10,23,6.80
2005,11,14,10,24,6.80
2005,11,14,10,25,6.80
2005,11,14,10,26,6.80
2005,11,14,10,27,6.80
2005,11,14,10,28,6.80
2005,11,14,10,29,6.80
2005,11,14,10,30,6.90
2005,11,14,10,31,6.90
2005,11,14,10,32,6.90
2005,11,14,10,33,7.00
2005,11,14,10,34,7.00
2005,11,14,10,35,7.00
2005,11,14,10,36,7.00
2005,11,14,10,37,7.00
2005,11,14,10,38,6.90
2005,11,14,10,39,6.90
2005,11,14,10,40,7.00
2005,11,14,10,41,7.00
2005,11,14,10,42,7.00
2005,11,14,10,43,7.00
2005,11,14,10,44,7.00
2005,11,14,10,45,7.10
2005,11,14,10,46,7.10
2005,11,14,10,47,7.10
2005,11,14,10,48,7.10
2005,11,14,10,49,7.10
2005,11,14,10,50,7.10
2005,11,14,10,51,7.10
2005,11,14,10,52,7.10
2005,11,14,10,53,7.10
2005,11,14,10,54,7.10
2005,11,14,10,55,7.10
2005,11,14,10,56,7.10
2005,11,14,10,57,7.10
2005,11,14,10,58,7.10
2005,11,14,10,59,7.20
2005,11,14,11,00,7.20
2005,11,14,11,01,7.20
2005,11,14,11,02,7.30
2005,11,14,11,03,7.30
2005,11,14,11,04,7.30
2005,11,14,11,05,7.30
2005,11,14,11,06,7.30
2005,11,14,11,07,7.30
2005,11,14,11,08,7.30
2005,11,14,11,09,7.30
2005,11,14,11,10,7.30
2005,11,14,11,11,7.30
2005,11,14,11,12,7.30
2005,11,14,11,13,7.30
2005,11,14,11,14,7.30
2005,11,14,11,15,7.30
2005,11,14,11,16,7.30
2005,11,14,11,17,7.30
2005,11,14,11,18,7.30
2005,11,14,11,19,7.30
2005,11,14,11,20,7.30
2005,11,14,11,21,7.30
2005,11,14,11,22,7.30
2005,11,14,11,23,7.30
2005,11,14,11,24,7.30
2005,11,14,11,25,7.30
2005,11,14,11,26,7.30
2005,11,14,11,27,7.30
2005,11,14,11,28,7.30
2005,11,14,11,29,7.30
2005,11,14,11,30,7.30
2005,11,14,11,31,7.30
2005,11,14,11,32,7.30
2005,11,14,11,33,7.30
2005,11,14,11,34,7.30
2005,11,14,11,35,7.30
2005,11,14,11,36,7.30
2005,11,14,11,37,7.30
2005,11,14,11,38,7.30
2005,11,14,11,39,7.30
2005,11,14,11,40,7.30
2005,11,14,11,41,7.30
2005,11,14,11,42,7.30
2005,11,14,11,43,7.30
2005,11,14,11,44,7.30
2005,11,14,11,45,7.30
2005,11,14,11,46,7.30
2005,11,14,11,47,7.30
2005,11,14,11,48,7.40
2005,11,14,11,49,7.50
2005,11,14,11,50,7.50
2005,11,14,11,51,7.50
2005,11,14,11,52,7.50
2005,11,14,11,53,7.50
2005,11,14,11,54,7.50
2005,11,14,11,55,7.50
2005,11,14,11,56,7.60
2005,11,14,11,57,7.60
2005,11,14,11,58,7.60
2005,11,14,11,59,7.60
2005,11,14,12,00,7.50
2005,11,14,12,01,7.50
2005,11,14,12,02,7.50
2005,11,14,12,03,7.50
2005,11,14,12,04,7.50
2005,11,14,12,05,7.50
2005,11,14,12,06,7.50
2005,11,14,12,07,7.50
2005,11,14,12,08,7.50
2005,11,14,12,09,7.60
2005,11,14,12,10,7.60
2005,11,14,12,11,7.70
2005,11,14,12,12,7.70
2005,11,14,12,13,7.70
2005,11,14,12,14,7.80
2005,11,14,12,15,7.80
2005,11,14,12,16,7.80
2005,11,14,12,17,7.80
2005,11,14,12,18,7.80
2005,11,14,12,19,7.70
2005,11,14,12,20,7.70
2005,11,14,12,21,7.80
2005,11,14,12,22,7.80
2005,11,14,12,23,7.70
2005,11,14,12,24,7.70
2005,11,14,12,25,7.70
2005,11,14,12,26,7.80
2005,11,14,12,27,7.80
2005,11,14,12,28,7.80
2005,11,14,12,29,7.80
2005,11,14,12,30,7.80
2005,11,14,12,31,7.80
2005,11,14,12,32,7.80
2005,11,14,12,33,7.80
2005,11,14,12,34,7.80
2005,11,14,12,35,7.80
2005,11,14,12,36,7.70
2005,11,14,12,37,7.70
2005,11,14,12,38,7.70
2005,11,14,12,39,7.70
2005,11,14,12,40,7.70
2005,11,14,12,41,7.70
2005,11,14,12,42,7.70
2005,11,14,12,43,7.80
2005,11,14,12,44,7.80
2005,11,14,12,45,7.70
2005,11,14,12,46,7.70
2005,11,14,12,47,7.70
2005,11,14,12,48,7.60
2005,11,14,12,49,7.60
2005,11,14,12,50,7.60
2005,11,14,12,51,7.60
2005,11,14,12,52,7.60
2005,11,14,12,53,7.70
2005,11,14,12,54,7.70
2005,11,14,12,55,7.70
2005,11,14,12,56,7.70
2005,11,14,12,57,7.80
2005,11,14,12,58,7.80
2005,11,14,12,59,7.80
2005,11,14,13,00,7.80
2005,11,14,13,01,7.80
2005,11,14,13,02,7.70
2005,11,14,13,03,7.70
2005,11,14,13,04,7.70
2005,11,14,13,05,7.70
2005,11,14,13,06,7.70
2005,11,14,13,07,7.80
2005,11,14,13,08,7.80
2005,11,14,13,09,7.80
2005,11,14,13,10,7.80
2005,11,14,13,11,7.80
2005,11,14,13,12,7.80
2005,11,14,13,13,7.80
2005,11,14,13,14,7.90
2005,11,14,13,15,7.90
2005,11,14,13,16,7.90
2005,11,14,13,17,7.80
2005,11,14,13,18,7.80
2005,11,14,13,19,7.80
2005,11,14,13,20,7.80
2005,11,14,13,21,7.80
2005,11,14,13,22,7.80
2005,11,14,13,23,7.80
2005,11,14,13,24,7.80
2005,11,14,13,25,7.80
2005,11,14,13,26,7.80
2005,11,14,13,27,7.80
2005,11,14,13,28,7.80
2005,11,14,13,29,7.80
2005,11,14,13,30,7.80
2005,11,14,13,31,7.80
2005,11,14,13,32,7.80
2005,11,14,13,33,7.70
2005,11,14,13,34,7.70
2005,11,14,13,35,7.80
2005,11,14,13,36,7.80
2005,11,14,13,37,7.80
2005,11,14,13,38,7.80
2005,11,14,13,39,7.80
2005,11,14,13,40,7.70
2005,11,14,13,41,7.70
2005,11,14,13,42,7.70
2005,11,14,13,43,7.70
2005,11,14,13,44,7.70
2005,11,14,13,45,7.80
2005,11,14,13,46,7.70
2005,11,14,13,47,7.80
2005,11,14,13,48,7.80
2005,11,14,13,49,7.80
2005,11,14,13,50,7.80
2005,11,14,13,51,7.80
2005,11,14,13,52,7.80
2005,11,14,13,53,7.80
2005,11,14,13,54,7.80
2005,11,14,13,55,7.80
2005,11,14,13,56,7.80
2005,11,14,13,57,7.80
2005,11,14,13,58,7.80
2005,11,14,13,59,7.70
2005,11,14,14,00,7.70
2005,11,14,14,01,7.80
2005,11,14,14,02,7.80
2005,11,14,14,03,7.80
2005,11,14,14,04,7.80
2005,11,14,14,05,7.70
2005,11,14,14,06,7.70
2005,11,14,14,07,7.70
2005,11,14,14,08,7.70
2005,11,14,14,09,7.70
2005,11,14,14,10,7.70
2005,11,14,14,11,7.80
2005,11,14,14,12,7.80
2005,11,14,14,13,7.80
2005,11,14,14,14,7.80
2005,11,14,14,15,7.80
2005,11,14,14,16,7.80
2005,11,14,14,17,7.80
2005,11,14,14,18,7.80
2005,11,14,14,19,7.80
2005,11,14,14,20,7.80
2005,11,14,14,21,7.80
2005,11,14,14,22,7.70
2005,11,14,14,23,7.70
2005,11,14,14,24,7.70
2005,11,14,14,25,7.60
2005,11,14,14,26,7.60
2005,11,14,14,27,7.70
2005,11,14,14,28,7.70
2005,11,14,14,29,7.70
2005,11,14,14,30,7.80
2005,11,14,14,31,7.80
2005,11,14,14,32,7.80
2005,11,14,14,33,7.80
2005,11,14,14,34,7.80
2005,11,14,14,35,7.80
2005,11,14,14,36,7.80
2005,11,14,14,37,7.70
2005,11,14,14,38,7.70
2005,11,14,14,39,7.70
2005,11,14,14,40,7.70
2005,11,14,14,41,7.70
2005,11,14,14,42,7.60
2005,11,14,14,43,7.60
2005,11,14,14,44,7.60
2005,11,14,14,45,7.60
2005,11,14,14,46,7.60
2005,11,14,14,47,7.60
2005,11,14,14,48,7.70
2005,11,14,14,49,7.70
2005,11,14,14,50,7.70
2005,11,14,14,51,7.70
2005,11,14,14,52,7.70
2005,11,14,14,53,7.70
2005,11,14,14,54,7.70
2005,11,14,14,55,7.70
2005,11,14,14,56,7.70
2005,11,14,14,57,7.70
2005,11,14,14,58,7.70
2005,11,14,14,59,7.70
2005,11,14,15,00,7.80
2005,11,14,15,01,7.80
2005,11,14,15,02,7.80
2005,11,14,15,03,7.80
2005,11,14,15,04,7.70
2005,11,14,15,05,7.70
2005,11,14,15,06,7.70
2005,11,14,15,07,7.70
2005,11,14,15,08,7.70
2005,11,14,15,09,7.70
2005,11,14,15,10,7.70
2005,11,14,15,11,7.70
2005,11,14,15,12,7.70
2005,11,14,15,13,7.70
2005,11,14,15,14,7.70
2005,11,14,15,15,7.80
2005,11,14,15,16,7.80
2005,11,14,15,17,7.80
2005,11,14,15,18,7.80
2005,11,14,15,19,7.80
2005,11,14,15,20,7.80
2005,11,14,15,21,7.80
2005,11,14,15,22,7.80
2005,11,14,15,23,7.80
2005,11,14,15,24,7.80
2005,11,14,15,25,7.80
2005,11,14,15,26,7.80
2005,11,14,15,27,7.80
2005,11,14,15,28,7.70
2005,11,14,15,29,7.70
2005,11,14,15,30,7.70
2005,11,14,15,31,7.70
2005,11,14,15,32,7.70
2005,11,14,15,33,7.70
2005,11,14,15,34,7.70
2005,11,14,15,35,7.70
2005,11,14,15,36,7.70
2005,11,14,15,37,7.70
2005,11,14,15,38,7.70
2005,11,14,15,39,7.70
2005,11,14,15,40,7.70
2005,11,14,15,41,7.70
2005,11,14,15,42,7.60
2005,11,14,15,43,7.60
2005,11,14,15,44,7.60
2005,11,14,15,45,7.60
2005,11,14,15,46,7.60
2005,11,14,15,47,7.60
2005,11,14,15,48,7.50
2005,11,14,15,49,7.50
2005,11,14,15,50,7.50
2005,11,14,15,51,7.50
2005,11,14,15,52,7.50
2005,11,14,15,53,7.40
2005,11,14,15,54,7.40
2005,11,14,15,55,7.40
2005,11,14,15,56,7.30
2005,11,14,15,57,7.30
2005,11,14,15,58,7.30
2005,11,14,15,59,7.30
2005,11,14,16,00,7.30
2005,11,14,16,01,7.20
2005,11,14,16,02,7.20
2005,11,14,16,03,7.20
2005,11,14,16,04,7.20
2005,11,14,16,05,7.20
2005,11,14,16,06,7.10
2005,11,14,16,07,7.10
2005,11,14,16,08,7.10
2005,11,14,16,09,7.10
2005,11,14,16,10,7.10
2005,11,14,16,11,7.00
2005,11,14,16,12,7.00
2005,11,14,16,13,7.00
2005,11,14,16,14,7.00
2005,11,14,16,15,6.90
2005,11,14,16,16,6.90
2005,11,14,16,17,6.90
2005,11,14,16,18,6.90
2005,11,14,16,19,6.80
2005,11,14,16,20,6.80
2005,11,14,16,21,6.80
2005,11,14,16,22,6.80
2005,11,14,16,23,6.80
2005,11,14,16,24,6.80
2005,11,14,16,25,6.70
2005,11,14,16,26,6.70
2005,11,14,16,27,6.70
2005,11,14,16,28,6.70
2005,11,14,16,29,6.60
2005,11,14,16,30,6.60
2005,11,14,16,31,6.60
2005,11,14,16,32,6.60
2005,11,14,16,33,6.60
2005,11,14,16,34,6.60
2005,11,14,16,35,6.50
2005,11,14,16,36,6.40
2005,11,14,16,37,6.40
2005,11,14,16,38,6.40
2005,11,14,16,39,6.40
2005,11,14,16,40,6.30
2005,11,14,16,41,6.30
2005,11,14,16,42,6.20
2005,11,14,16,43,6.20
2005,11,14,16,44,6.20
2005,11,14,16,45,6.20
2005,11,14,16,46,6.10
2005,11,14,16,47,6.00
2005,11,14,16,48,6.00
2005,11,14,16,49,5.90
2005,11,14,16,50,5.70
2005,11,14,16,51,5.70
2005,11,14,16,52,5.60
2005,11,14,16,53,5.50
2005,11,14,16,54,5.50
2005,11,14,16,55,5.40
2005,11,14,16,56,5.30
2005,11,14,16,57,5.30
2005,11,14,16,58,5.30
2005,11,14,16,59,5.30
2005,11,14,17,00,5.30
2005,11,14,17,01,5.30
2005,11,14,17,02,5.30
2005,11,14,17,03,5.30
2005,11,14,17,04,5.20
2005,11,14,17,05,5.10
2005,11,14,17,06,5.10
2005,11,14,17,07,5.10
2005,11,14,17,08,5.00
2005,11,14,17,09,4.90
2005,11,14,17,10,4.90
2005,11,14,17,11,4.90
2005,11,14,17,12,4.80
2005,11,14,17,13,4.80
2005,11,14,17,14,4.70
2005,11,14,17,15,4.70
2005,11,14,17,16,4.60
2005,11,14,17,17,4.50
2005,11,14,17,18,4.50
2005,11,14,17,19,4.40
2005,11,14,17,20,4.40
2005,11,14,17,21,4.40
2005,11,14,17,22,4.30
2005,11,14,17,23,4.30
2005,11,14,17,24,4.20
2005,11,14,17,25,4.20
2005,11,14,17,26,4.20
2005,11,14,17,27,4.20
2005,11,14,17,28,4.20
2005,11,14,17,29,4.20
2005,11,14,17,30,4.10
2005,11,14,17,31,4.10
2005,11,14,17,32,4.10
2005,11,14,17,33,4.00
2005,11,14,17,34,4.00
2005,11,14,17,35,4.00
2005,11,14,17,36,4.00
2005,11,14,17,37,4.00
2005,11,14,17,38,4.00
2005,11,14,17,39,4.00
2005,11,14,17,40,3.90
2005,11,14,17,41,3.90
2005,11,14,17,42,3.90
2005,11,14,17,43,3.90
2005,11,14,17,44,3.90
2005,11,14,17,45,3.90
2005,11,14,17,46,3.90
2005,11,14,17,47,3.80
2005,11,14,17,48,3.80
2005,11,14,17,49,3.80
2005,11,14,17,50,3.80
2005,11,14,17,51,3.80
2005,11,14,17,52,3.80
2005,11,14,17,53,3.80
2005,11,14,17,54,3.80
2005,11,14,17,55,3.80
2005,11,14,17,56,3.80
2005,11,14,17,57,3.80
2005,11,14,17,58,3.80
2005,11,14,17,59,3.80
2005,11,14,18,00,3.80
2005,11,14,18,01,3.80
2005,11,14,18,02,3.80
2005,11,14,18,03,3.80
2005,11,14,18,04,3.80
2005,11,14,18,05,3.80
2005,11,14,18,06,3.80